Weather History for Akron, OH

Change the Weather History Date:

Wednesday, March 28, 2012

  Actual Average (KCAK) Record (KCAK)
Temperature  
Mean Temperature 62 °F 42 °F  
Max Temperature 75 °F 52 °F 80 °F (1910)
Min Temperature 50 °F 32 °F 12 °F (1982)
Degree Days  
Heating Degree Days 3 23  
Month to date heating degree days 784  
Since 1 July heating degree days 5328  
Cooling Degree Days 0 0  
Month to date cooling degree days 0  
Year to date cooling degree days 0  
Growing Degree Days 12 (Base 50)    
Moisture  
Dew Point 37 °F    
Average Humidity 44    
Maximum Humidity 61    
Minimum Humidity 27    
Precipitation  
Precipitation 0.00 in 0.11 in 1.34 in (1985)
Month to date precipitation 2.65  
Year to date precipitation 7.57  
Snow  
Snow 0.00 in 0.20 in - ()
Month to date snowfall 7.7  
Since 1 July snowfall 44.2  
Snow Depth -    
Sea Level Pressure  
Sea Level Pressure 29.81 in    
Wind  
Wind Speed 15 mph (WSW)    
Max Wind Speed 31 mph    
Max Gust Speed 44 mph    
Visibility 10 miles    
Events      
T = Trace of Precipitation, MM = Missing Value Source: NWS Daily Summary

Daily Weather History Graph

Daily Weather History Graph

Search for Another Location

Airport:

Trip Planner

Search our weather history database for the weather conditions in past years. The results will help you decide how hot, cold, wet, or windy it might be!

Date:

Astronomy

Mar. 28, 2012 Rise Set
Actual Time 7:15 AM EDT 7:47 PM EDT
Civil Twilight 6:47 AM EDT 8:14 PM EDT
Nautical Twilight 6:14 AM EDT 8:47 PM EDT
Astronomical Twilight 5:41 AM EDT 9:21 PM EDT
Moon 10:28 AM EDT (3/28) 12:50 AM EDT (3/28)
Length of Visible Light 13h 27m
Length of Day
12h 32m
Waxing Crescent, 30% of the Moon is Illuminated
Mar 28
Waxing Crescent
Mar 30
First Quarter
Apr 6
Full
Apr 13
Last Quarter
Apr 21
New

Hourly Weather History & Observations

Time (EDT) Temp. Dew Point Humidity Pressure Visibility Wind Dir Wind Speed Gust Speed Precip Events Conditions
12:54 AM 51.1 °F 21.9 °F 32% 29.96 in 10.0 mi South 13.8 mph - N/A   Clear
1:54 AM 51.1 °F 23.0 °F 33% 29.94 in 10.0 mi SSW 12.7 mph - N/A   Clear
2:54 AM 51.1 °F 24.1 °F 35% 29.91 in 10.0 mi SSW 12.7 mph - N/A   Clear
3:54 AM 54.0 °F 25.0 °F 33% 29.88 in 10.0 mi SW 12.7 mph - N/A   Scattered Clouds
4:54 AM 55.9 °F 27.0 °F 33% 29.84 in 10.0 mi SW 13.8 mph 24.2 mph N/A   Mostly Cloudy
5:54 AM 55.9 °F 30.0 °F 37% 29.81 in 10.0 mi SW 10.4 mph - N/A   Mostly Cloudy
6:54 AM 57.0 °F 35.1 °F 44% 29.80 in 10.0 mi SW 13.8 mph - N/A   Overcast
7:54 AM 57.0 °F 39.0 °F 51% 29.81 in 10.0 mi SW 10.4 mph - N/A   Overcast
8:54 AM 57.9 °F 42.1 °F 56% 29.80 in 10.0 mi SW 11.5 mph - N/A   Overcast
9:54 AM 59.0 °F 45.0 °F 60% 29.78 in 10.0 mi SW 9.2 mph - N/A   Mostly Cloudy
10:54 AM 66.0 °F 51.1 °F 59% 29.77 in 10.0 mi WSW 11.5 mph - N/A   Clear
11:54 AM 70.0 °F 51.1 °F 51% 29.75 in 10.0 mi West 21.9 mph 27.6 mph N/A   Clear
12:54 PM 73.0 °F 48.9 °F 42% 29.72 in 10.0 mi WSW 23.0 mph 33.4 mph N/A   Clear
1:54 PM 73.9 °F 45.0 °F 35% 29.70 in 10.0 mi West 28.8 mph 41.4 mph N/A   Mostly Cloudy
2:54 PM 73.9 °F 37.9 °F 27% 29.70 in 10.0 mi West 31.1 mph 40.3 mph N/A   Partly Cloudy
3:54 PM 73.4 °F 37.4 °F 27% 29.71 in 10.0 mi West 29.9 mph 43.7 mph N/A   Partly Cloudy
4:54 PM 71.1 °F 35.1 °F 27% 29.70 in 10.0 mi West 31.1 mph 43.7 mph N/A   Partly Cloudy
5:54 PM 69.1 °F 35.1 °F 29% 29.73 in 10.0 mi WNW 20.7 mph 34.5 mph N/A   Partly Cloudy
6:54 PM 63.0 °F 41.0 °F 45% 29.77 in 10.0 mi NW 19.6 mph 28.8 mph N/A   Mostly Cloudy
7:54 PM 55.9 °F 39.9 °F 55% 29.82 in 10.0 mi North 13.8 mph 19.6 mph N/A   Partly Cloudy
8:54 PM 53.1 °F 39.9 °F 61% 29.86 in 10.0 mi North 10.4 mph - N/A   Clear
9:54 PM 52.0 °F 37.9 °F 59% 29.88 in 10.0 mi NNW 10.4 mph 21.9 mph N/A   Clear
10:54 PM 51.1 °F 37.9 °F 61% 29.89 in 10.0 mi NNW 10.4 mph - N/A   Mostly Cloudy
11:54 PM 50.0 °F 36.0 °F 59% 29.90 in 10.0 mi NNW 15.0 mph 25.3 mph N/A   Overcast